This is the latest recevied weather packets stored in our database for station/object NK2J. If no packets are shown the sender has not sent any weather packets the latest 10 day(s).
| Time | Temp. | Humidity | Pressure | Rain* | Wind** | Luminosity | Snow |
|---|---|---|---|---|---|---|---|
| 1777787842 | 26.11° C | 23% | 1012.9 hPa | 0 mm | - | 0 W/m² | - |
| 1777787539 | 25.56° C | 23% | 1012.9 hPa | 0 mm | - | 0 W/m² | - |
| 1777787233 | 25.56° C | 24% | 1012.6 hPa | 0 mm | - | 0 W/m² | - |
| 1777786930 | 25° C | 23% | 1012.9 hPa | 0 mm | - | 0 W/m² | - |
| 1777786629 | 25.56° C | 23% | 1012.9 hPa | 0 mm | - | 0 W/m² | - |
| 1777786327 | 25° C | 23% | 1013 hPa | 0 mm | - | 0 W/m² | - |
| 1777786023 | 25° C | 23% | 1013.1 hPa | 0 mm | - | 0 W/m² | - |
| 1777785719 | 25° C | 23% | 1013 hPa | 0 mm | - | 0 W/m² | - |
| 1777785414 | 25.56° C | 23% | 1013 hPa | 0 mm | - | 0 W/m² | - |
| 1777785113 | 25.56° C | 22% | 1012.9 hPa | 0 mm | - | 0 W/m² | - |
| 1777784809 | 26.11° C | 22% | 1013 hPa | 0 mm | - | 0 W/m² | - |
| 1777784505 | 26.11° C | 21% | 1012.9 hPa | 0 mm | - | 0 W/m² | - |
| 1777784203 | 26.11° C | 21% | 1012.9 hPa | 0 mm | - | 0 W/m² | - |
| 1777783900 | 26.67° C | 21% | 1013 hPa | 0 mm | - | 0 W/m² | - |
| 1777783597 | 26.67° C | 21% | 1012.7 hPa | 0 mm | - | 0 W/m² | - |
| 1777783294 | 26.67° C | 20% | 1012.6 hPa | 0 mm | - | 0 W/m² | - |
| 1777782991 | 26.67° C | 21% | 1012.7 hPa | 0 mm | - | 0 W/m² | - |
| 1777782688 | 26.67° C | 21% | 1012.3 hPa | 0 mm | - | 0 W/m² | - |
| 1777782384 | 26.67° C | 20% | 1012.3 hPa | 0 mm | - | 0 W/m² | - |
| 1777782080 | 26.67° C | 21% | 1012.3 hPa | 0 mm | - | 0 W/m² | - |
| 1777781777 | 26.67° C | 20% | 1012.3 hPa | 0 mm | - | 0 W/m² | - |
| 1777781475 | 26.67° C | 20% | 1012.2 hPa | 0 mm | - | 0 W/m² | - |
| 1777781172 | 27.22° C | 20% | 1012.1 hPa | 0 mm | - | 0 W/m² | - |
| 1777780869 | 27.22° C | 20% | 1012.2 hPa | 0 mm | - | 0 W/m² | - |
| 1777780566 | 27.22° C | 21% | 1011.9 hPa | 0 mm | - | 0 W/m² | - |
* Rain latest hour (hover to see other rain measurements)
** Current wind speed in m/s (hover to see current wind gust speed)